This demonstration page uses our WeatherBlox Daily Observations layout. Learn more.

41.55636, -103.73856

Hourly Observations for February 28, 2019

Temp ( °F °C ) Dew Point ( °F °C ) Humidity (%) Winds ( mph kmh ) Pressure ( in mb ) Visibility ( mi km ) Precip ( " mm )
12:58 am 00:58 Mostly Cloudy 24 -4.2 14 -10.1 64 64 S 12 19 30.19 1022 10 16.0934 N/A
1:58 am 01:58 Mostly Cloudy 24 -4.2 13 -10.4 62 62 SSW 14 22 30.17 1022 10 16.0934 N/A
2:58 am 02:58 Cloudy 25 -4 14 -10.1 63 63 SSW 16 26 30.15 1021 10 16.0934 N/A
3:58 am 03:58 Cloudy 25 -4 15 -9.5 66 66 SSW 18 30 30.13 1020 10 16.0934 N/A
4:58 am 04:58 Cloudy 24 -4.5 17 -8.4 74 74 SSW 20 31 30.11 1020 10 16.0934 N/A
5:58 am 05:58 Mostly Cloudy 24 -4.7 17 -8.6 74 74 SSW 21 33 30.1 1019 10 16.0934 N/A
6:58 am 06:58 Partly Cloudy 22 -5.7 15 -9.4 75 75 SSW 16 26 30.08 1019 10 16.0934 N/A
7:58 am 07:58 Clear 20 -6.7 14 -9.9 78 78 SSW 13 20 30.08 1019 10 16.0934 N/A
8:58 am 08:58 Clear 23 -5.1 18 -8 80 80 W 10 17 30.06 1018 10 16.0934 N/A
9:58 am 09:58 Clear 30 -1.2 21 -6 70 70 WNW 14 22 30.01 1016 10 16.0934 N/A
10:58 am 10:58 Clear 26 -3.1 20 -6.6 77 77 WNW 13 20 30.04 1017 10 16.0934 N/A
11:58 am 11:58 Clear 24 -4.4 19 -7.1 82 82 NNE 10 17 30.08 1019 10 16.0934 N/A
12:58 pm 12:58 Mostly Clear 21 -6 16 -8.9 80 80 NNE 8 13 30.1 1019 10 16.0934 N/A
1:58 pm 13:58 Mostly Sunny 21 -6.3 17 -8.5 85 85 N 8 13 30.1 1019 10 16.0934 N/A
2:58 pm 14:58 Sunny 24 -4.4 20 -6.6 85 85 NNW 6 9 30.11 1020 10 16.0934 N/A
3:58 pm 15:58 Sunny 32 0.1 22 -5.3 67 67 Calm 30.07 1018 10 16.0934 N/A
4:58 pm 16:58 Sunny 37 2.8 24 -4.4 59 59 ESE 5 7 30.03 1017 10 16.0934 N/A
5:58 pm 17:58 Sunny 41 5.2 24 -4.3 51 51 Calm 29.99 1016 10 16.0934 N/A
6:58 pm 18:58 Sunny 45 7 24 -4.7 43 43 Calm 29.96 1015 10 16.0934 N/A
7:58 pm 19:58 Partly Cloudy 47 8.2 23 -4.8 40 40 S 13 20 29.93 1013 10 16.0934 N/A
8:58 pm 20:58 Mostly Sunny 48 8.8 24 -4.3 40 40 S 15 24 29.88 1012 10 16.0934 N/A
9:58 pm 21:58 Mostly Cloudy 46 7.5 22 -5.5 40 40 SSW 17 28 29.86 1011 10 16.0934 N/A
10:58 pm 22:58 Mostly Cloudy 42 5.5 22 -5.3 46 46 Calm 29.9 1013 10 16.0934 N/A
11:58 pm 23:58 Mostly Cloudy 41 5.2 25 -4 52 52 WSW 14 22 29.94 1014 10 16.0934 N/A

Powered by AerisWeather